TimeCDT,TemperatureF,Dew PointF,Humidity,Sea Level PressureIn,VisibilityMPH,Wind Direction,Wind SpeedMPH,Gust SpeedMPH,PrecipitationIn,Events,Conditions,WindDirDegrees,DateUTC
12:15 AM,39.2,28.4,65,29.89,10.0,South,10.4,-,N/A,,Clear,170,2012-09-19 05:15:00
12:35 AM,37.4,28.4,70,29.89,10.0,South,8.1,-,N/A,,Clear,170,2012-09-19 05:35:00
12:55 AM,37.4,30.2,75,29.88,10.0,South,10.4,-,N/A,,Clear,180,2012-09-19 05:55:00
1:15 AM,37.4,30.2,75,29.88,10.0,South,11.5,17.3,N/A,,Clear,180,2012-09-19 06:15:00
1:35 AM,37.4,28.4,70,29.88,10.0,South,9.2,17.3,N/A,,Clear,180,2012-09-19 06:35:00
1:55 AM,37.4,30.2,75,29.88,10.0,South,9.2,-,N/A,,Clear,180,2012-09-19 06:55:00
2:15 AM,39.2,30.2,70,29.86,10.0,South,12.7,17.3,N/A,,Clear,180,2012-09-19 07:15:00
2:35 AM,39.2,30.2,70,29.86,10.0,South,9.2,16.1,N/A,,Scattered Clouds,180,2012-09-19 07:35:00
2:55 AM,39.2,30.2,70,29.85,10.0,South,9.2,-,N/A,,Mostly Cloudy,180,2012-09-19 07:55:00
3:15 AM,39.2,30.2,70,29.84,10.0,South,12.7,18.4,N/A,,Overcast,180,2012-09-19 08:15:00
3:35 AM,41.0,30.2,65,29.83,10.0,South,11.5,17.3,N/A,,Overcast,170,2012-09-19 08:35:00
3:55 AM,41.0,30.2,65,29.82,10.0,South,12.7,18.4,N/A,,Overcast,180,2012-09-19 08:55:00
4:15 AM,41.0,30.2,65,29.82,10.0,South,10.4,21.9,N/A,,Scattered Clouds,170,2012-09-19 09:15:00
4:55 AM,39.2,30.2,70,29.80,10.0,South,10.4,-,N/A,,Overcast,170,2012-09-19 09:55:00
5:15 AM,41.0,32.0,70,29.78,10.0,SSE,8.1,-,0.01,,Overcast,150,2012-09-19 10:15:00
5:35 AM,41.0,32.0,70,29.78,10.0,SSE,11.5,18.4,0.01,,Scattered Clouds,160,2012-09-19 10:35:00
5:55 AM,41.0,32.0,70,29.76,10.0,SSE,15.0,23.0,0.01,,Mostly Cloudy,160,2012-09-19 10:55:00
6:15 AM,42.8,32.0,66,29.73,10.0,SSE,12.7,21.9,N/A,,Mostly Cloudy,160,2012-09-19 11:15:00
6:35 AM,42.8,30.2,61,29.72,10.0,SSE,10.4,21.9,N/A,,Overcast,150,2012-09-19 11:35:00
6:55 AM,42.8,30.2,61,29.70,10.0,SSE,15.0,28.8,N/A,,Mostly Cloudy,160,2012-09-19 11:55:00
7:15 AM,42.8,30.2,61,29.69,10.0,SSE,11.5,20.7,N/A,,Scattered Clouds,160,2012-09-19 12:15:00
7:35 AM,44.6,30.2,57,29.66,10.0,SSE,18.4,27.6,N/A,,Scattered Clouds,160,2012-09-19 12:35:00
8:15 AM,44.6,30.2,57,29.64,10.0,South,16.1,27.6,N/A,,Mostly Cloudy,170,2012-09-19 13:15:00
8:35 AM,44.6,30.2,57,29.63,10.0,South,18.4,31.1,N/A,,Scattered Clouds,170,2012-09-19 13:35:00
8:55 AM,46.4,30.2,53,29.62,10.0,South,17.3,27.6,N/A,,Partly Cloudy,180,2012-09-19 13:55:00
9:15 AM,46.4,30.2,53,29.60,10.0,South,13.8,29.9,N/A,,Scattered Clouds,170,2012-09-19 14:15:00
9:55 AM,48.2,33.8,58,29.59,10.0,South,16.1,26.5,N/A,,Scattered Clouds,190,2012-09-19 14:55:00
10:15 AM,50.0,35.6,58,29.61,10.0,SW,18.4,39.1,0.01,,Mostly Cloudy,230,2012-09-19 15:15:00
10:35 AM,51.8,35.6,54,29.61,10.0,SSW,16.1,26.5,0.01,,Scattered Clouds,210,2012-09-19 15:35:00
10:55 AM,53.6,35.6,51,29.59,10.0,South,18.4,35.7,0.01,,Scattered Clouds,190,2012-09-19 15:55:00
11:15 AM,53.6,35.6,51,29.59,10.0,SW,13.8,26.5,N/A,,Partly Cloudy,220,2012-09-19 16:15:00
11:35 AM,53.6,37.4,54,29.58,10.0,SSW,12.7,21.9,N/A,,Clear,210,2012-09-19 16:35:00
11:55 AM,55.4,37.4,51,29.58,10.0,SSW,6.9,17.3,N/A,,Clear,200,2012-09-19 16:55:00
12:15 PM,57.2,39.2,51,29.57,10.0,SSW,15.0,24.2,N/A,,Clear,210,2012-09-19 17:15:00
12:35 PM,57.2,39.2,51,29.58,10.0,SSW,16.1,26.5,N/A,,Partly Cloudy,210,2012-09-19 17:35:00
1:15 PM,57.2,41.0,55,29.58,10.0,SSW,13.8,23.0,N/A,,Scattered Clouds,210,2012-09-19 18:15:00
1:35 PM,57.2,42.8,59,29.56,10.0,SSW,16.1,23.0,N/A,,Scattered Clouds,210,2012-09-19 18:35:00
1:55 PM,55.4,41.0,58,29.57,10.0,SSW,9.2,17.3,N/A,,Scattered Clouds,200,2012-09-19 18:55:00
2:15 PM,57.2,41.0,55,29.57,10.0,SSW,11.5,18.4,N/A,,Scattered Clouds,200,2012-09-19 19:15:00
2:35 PM,57.2,42.8,59,29.57,10.0,SSW,16.1,25.3,N/A,,Partly Cloudy,210,2012-09-19 19:35:00
2:55 PM,59.0,42.8,55,29.56,10.0,SSW,13.8,25.3,N/A,,Partly Cloudy,200,2012-09-19 19:55:00
3:15 PM,60.8,42.8,52,29.56,10.0,SSW,13.8,25.3,N/A,,Clear,210,2012-09-19 20:15:00
3:35 PM,60.8,42.8,52,29.55,10.0,SSW,20.7,26.5,N/A,,Clear,210,2012-09-19 20:35:00
4:15 PM,62.6,42.8,48,29.55,10.0,SSW,12.7,24.2,N/A,,Clear,210,2012-09-19 21:15:00
4:35 PM,60.8,44.6,55,29.57,10.0,West,12.7,18.4,N/A,,Partly Cloudy,260,2012-09-19 21:35:00
4:55 PM,53.6,39.2,58,29.59,10.0,NW,11.5,24.2,N/A,Thunderstorm,Mostly Cloudy,320,2012-09-19 21:55:00
5:15 PM,50.0,42.8,76,29.63,10.0,West,9.2,17.3,N/A,Thunderstorm,Thunderstorm,270,2012-09-19 22:15:00
5:35 PM,50.0,44.6,82,29.63,10.0,SW,9.2,-,N/A,Thunderstorm,Thunderstorm,230,2012-09-19 22:35:00
5:55 PM,48.2,44.6,87,29.63,10.0,South,6.9,-,0.21,,Mostly Cloudy,190,2012-09-19 22:55:00
6:15 PM,50.0,44.6,82,29.62,9.0,WSW,6.9,-,0.03,,Overcast,250,2012-09-19 23:15:00
6:35 PM,50.0,44.6,82,29.63,8.0,WSW,6.9,-,0.10,,Overcast,250,2012-09-19 23:35:00
6:55 PM,50.0,46.4,87,29.63,10.0,SW,6.9,-,0.11,,Overcast,220,2012-09-19 23:55:00
7:15 PM,50.0,46.4,87,29.63,10.0,SW,6.9,-,N/A,,Overcast,230,2012-09-20 00:15:00
7:35 PM,51.8,46.4,82,29.63,10.0,WSW,11.5,-,N/A,,Overcast,240,2012-09-20 00:35:00
8:15 PM,50.0,46.4,87,29.66,10.0,West,12.7,-,0.03,,Overcast,270,2012-09-20 01:15:00
8:35 PM,50.0,46.4,87,29.67,10.0,West,13.8,-,0.04,,Mostly Cloudy,260,2012-09-20 01:35:00
8:55 PM,50.0,46.4,87,29.67,10.0,WSW,13.8,-,0.05,,Mostly Cloudy,250,2012-09-20 01:55:00
9:15 PM,48.2,44.6,87,29.66,10.0,WSW,10.4,-,0.01,,Overcast,240,2012-09-20 02:15:00
9:35 PM,48.2,44.6,87,29.66,10.0,WSW,12.7,-,0.01,,Partly Cloudy,240,2012-09-20 02:35:00
9:55 PM,48.2,44.6,87,29.66,10.0,WSW,12.7,-,0.01,,Partly Cloudy,250,2012-09-20 02:55:00
10:15 PM,48.2,44.6,87,29.66,10.0,West,13.8,19.6,N/A,,Partly Cloudy,260,2012-09-20 03:15:00
10:35 PM,48.2,42.8,82,29.65,10.0,WSW,15.0,19.6,N/A,,Partly Cloudy,250,2012-09-20 03:35:00
10:55 PM,48.2,42.8,82,29.65,10.0,WSW,13.8,-,N/A,,Clear,250,2012-09-20 03:55:00
11:35 PM,48.2,44.6,87,29.65,10.0,WSW,15.0,-,N/A,,Overcast,250,2012-09-20 04:35:00
11:55 PM,48.2,42.8,82,29.65,10.0,West,18.4,24.2,N/A,,Overcast,260,2012-09-20 04:55:00